This demonstration page uses our WeatherBlox Daily Observations layout. Learn more.

Left ArrowRight Arrow

39.08367, -84.50855

Hourly Observations for August 24, 2015

Temp ( °F °C ) Dew Point ( °F °C ) Humidity (%) Winds ( mph kmh ) Pressure ( in mb ) Visibility ( mi km ) Precip ( " mm )
12:00 am 00:00 Partly Cloudy 73 23 61 16 65 65 NNW 15 24 29.91 1013 10 16 N/A
12:53 am 00:53 Mostly Cloudy 72 22.2 61 16.1 68 68 NW 8 13 29.94 1014 10 16 N/A
1:53 am 01:53 Mostly Cloudy 70 21.1 59 15 68 68 NNW 10 17 29.96 1015 10 16 N/A
2:53 am 02:53 Clear 68 20 58 14.4 70 70 NNW 6 9 29.96 1014 10 16 N/A
3:53 am 03:53 Clear 66 18.9 57 13.9 73 73 NW 5 7 29.96 1015 10 16 N/A
4:53 am 04:53 Clear 64 17.8 57 13.9 78 78 WNW 3 6 29.96 1015 10 16 N/A
5:53 am 05:53 Clear 63 17.2 57 13.9 81 81 WNW 8 13 29.97 1015 10 16 N/A
6:53 am 06:53 Clear 58 14.4 57 13.9 97 97 N N/A 29.99 1016 10 16 N/A
7:53 am 07:53 Partly Cloudy 61 16.1 59 15 93 93 N N/A 30.01 1016 10 16 N/A
8:53 am 08:53 Sunny 66 18.9 57 13.9 73 73 W 6 9 30.01 1016 10 16 N/A
9:53 am 09:53 Sunny 69 20.6 55 12.8 61 61 W 9 15 30.02 1017 10 16 N/A
10:53 am 10:53 Sunny 71 21.7 52 11.1 51 51 W 13 20 30.01 1016 10 16 N/A
11:53 am 11:53 Sunny 72 22.2 53 11.7 52 52 WSW 12 19 30.01 1016 10 16 N/A
12:53 pm 12:53 Mostly Sunny 73 22.8 52 11.1 48 48 WSW 10 17 30.00 1016 10 16 N/A
1:53 pm 13:53 Mostly Sunny 75 23.9 52 11.1 45 45 SW 10 17 29.99 1016 10 16 N/A
2:53 pm 14:53 Mostly Sunny 76 24.4 52 11.1 43 43 W 8 13 29.98 1015 10 16 N/A
3:53 pm 15:53 Sunny 75 23.9 51 10.6 43 43 W 8 13 29.96 1015 10 16 N/A
4:53 pm 16:53 Sunny 75 23.9 51 10.6 43 43 WSW 8 13 29.96 1014 10 16 N/A
5:53 pm 17:53 Sunny 75 23.9 50 10 41 41 W 13 20 29.96 1015 10 16 N/A
6:53 pm 18:53 Sunny 74 23.3 52 11.1 46 46 W 12 19 29.96 1014 10 16 N/A
7:53 pm 19:53 Sunny 71 21.7 52 11.1 51 51 W 10 17 29.96 1015 10 16 N/A
8:53 pm 20:53 Clear 70 21.1 50 10 49 49 N N/A 29.96 1015 10 16 N/A
9:53 pm 21:53 Clear 61 16.1 56 13.3 84 84 N N/A 29.98 1015 10 16 N/A
10:53 pm 22:53 Clear 59 15 55 12.8 87 87 S 5 7 29.99 1016 10 16 N/A
11:53 pm 23:53 Mostly Cloudy 61 16.1 55 12.8 81 81 S 6 9 29.99 1016 10 16 N/A

Powered by AerisWeather